QPF
0.00 0.00 0.00 0.00 0.00 0.00 0.00 0.00 0.00 0.00 0.00 0.00 0.00 0.00 0.00 0.00 0.00 0.00 0.00 0.00 0.00 0.00 0.00 0.00 0.00 0.00 0.00 0.00 0.00 0.00 0.00 0.00 0.00 0.00 0.00 0.00 0.00 0.00 0.00 0.00 0.00 0.00 0.01
0.00 0.00 0.00 0.00 0.00 0.00 0.00 0.00 0.00 0.00 0.00 0.00 0.00 0.00 0.00 0.00 0.00 0.00 0.00 0.00 0.00 0.00 0.00 0.00 0.00 0.00 0.00 0.00 0.00 0.00 0.00 0.00 0.00 0.00 0.00 0.00 0.00 0.00 0.00 0.00 0.00 0.00 0.00
0.00 0.00 0.00 0.00 0.00 0.00 0.00 0.00 0.00 0.00 0.00 0.00 0.00 0.00 0.00 0.00 0.00 0.00 0.00 0.00 0.00 0.00 0.00 0.00 0.00 0.00 0.00 0.00 0.00 0.00 0.00 0.00 0.00 0.00 0.00 0.00 0.00 0.00 0.00 0.00 0.00 0.00 0.00
0.00 0.00 0.00 0.00 0.00 0.00 0.00 0.00 0.00 0.00 0.00 0.00 0.00 0.00 0.00 0.00 0.00 0.00 0.00 0.00 0.00 0.00 0.00 0.00 0.00 0.00 0.00 0.00 0.00 0.00 0.00 0.00 0.00 0.00 0.00 0.00 0.00 0.00 0.00 0.00 0.00 0.00 0.00
0.00 0.00 0.00 0.00 0.00 0.00 0.00 0.00 0.00 0.00 0.00 0.00 0.00 0.00 0.00 0.00 0.00 0.00 0.00 0.00 0.00 0.00 0.00 0.00 0.00 0.00 0.00 0.00 0.00 0.00 0.00 0.00 0.00 0.00 0.00 0.00 0.00 0.00 0.00 0.00 0.00 0.00 0.00
0.00 0.00 0.00 0.00 0.00 0.00 0.00 0.00 0.00 0.00 0.00 0.00 0.00 0.00 0.00 0.00 0.00 0.00 0.00 0.00 0.00 0.00 0.00 0.00 0.00 0.00 0.00 0.00 0.00 0.00 0.00 0.00 0.00 0.00 0.00 0.00 0.00 0.00 0.00 0.00 0.00 0.00 0.00
0.00 0.00 0.00 0.00 0.00 0.00 0.00 0.00 0.00 0.00 0.00 0.00 0.00 0.00 0.00 0.00 0.00 0.00 0.00 0.00 0.00 0.00 0.00 0.00 0.00 0.00 0.00 0.00 0.00 0.00 0.00 0.00 0.00 0.00 0.00 0.00 0.00 0.00 0.00 0.00 0.00 0.00 0.00
0.00 0.00 0.00 0.00 0.00 0.00 0.00 0.00 0.00 0.00 0.00 0.00 0.00 0.00 0.00 0.00 0.00 0.00 0.00 0.00 0.00 0.00 0.00 0.00 0.00 0.00 0.00 0.00 0.00 0.00 0.00 0.00 0.00 0.00 0.00 0.00 0.00 0.00 0.00 0.00 0.00 0.00 0.00
0.00 0.00 0.00 0.00 0.00 0.00 0.00 0.00 0.00 0.00 0.00 0.00 0.00 0.00 0.00 0.00 0.00 0.00 0.00 0.00 0.00 0.00 0.00 0.00 0.00 0.00 0.00 0.00 0.00 0.00 0.00 0.00 0.00 0.00 0.00 0.00 0.00 0.00 0.00 0.00 0.00 0.01 0.01
0.00 0.00 0.00 0.00 0.00 0.00 0.00 0.00 0.00 0.00 0.00 0.00 0.00 0.00 0.00 0.00 0.00 0.00 0.00 0.00 0.00 0.00 0.00 0.00 0.00 0.00 0.00 0.00 0.00 0.00 0.00 0.00 0.00 0.00 0.00 0.00 0.00 0.00 0.00 0.00 0.00 0.01 0.01
0.00 0.00 0.00 0.00 0.00 0.00 0.00 0.00 0.00 0.00 0.00 0.00 0.00 0.00 0.00 0.00 0.00 0.00 0.00 0.00 0.00 0.00 0.00 0.00 0.00 0.00 0.00 0.00 0.00 0.00 0.00 0.00 0.00 0.00 0.00 0.00 0.00 0.00 0.00 0.00 0.01 0.01 0.01
0.00 0.00 0.00 0.00 0.00 0.00 0.00 0.00 0.00 0.00 0.00 0.00 0.00 0.00 0.00 0.00 0.00 0.00 0.00 0.00 0.00 0.00 0.00 0.00 0.00 0.00 0.00 0.00 0.00 0.00 0.00 0.00 0.00 0.00 0.00 0.00 0.00 0.00 0.00 0.00 0.01 0.01 0.01
0.00 0.00 0.00 0.00 0.00 0.00 0.00 0.00 0.00 0.00 0.00 0.00 0.00 0.00 0.00 0.00 0.00 0.00 0.00 0.00 0.00 0.00 0.00 0.00 0.00 0.00 0.00 0.00 0.00 0.00 0.00 0.00 0.00 0.00 0.00 0.00 0.00 0.00 0.00 0.00 0.01 0.01 0.01
0.00 0.00 0.00 0.00 0.00 0.00 0.00 0.00 0.00 0.00 0.00 0.00 0.00 0.00 0.00 0.00 0.00 0.00 0.00 0.00 0.00 0.00 0.00 0.00 0.00 0.00 0.00 0.00 0.00 0.00 0.00 0.00 0.00 0.00 0.00 0.00 0.00 0.00 0.00 0.00 0.01 0.02 0.03
0.00 0.00 0.00 0.00 0.00 0.00 0.00 0.00 0.00 0.00 0.00 0.00 0.00 0.00 0.00 0.00 0.00 0.00 0.00 0.00 0.00 0.00 0.00 0.00 0.00 0.00 0.00 0.00 0.00 0.00 0.00 0.00 0.00 0.00 0.00 0.00 0.00 0.00 0.00 0.00 0.00 0.01 0.03
0.00 0.00 0.00 0.00 0.00 0.00 0.00 0.00 0.00 0.00 0.00 0.00 0.00 0.00 0.00 0.00 0.00 0.00 0.00 0.00 0.00 0.00 0.00 0.00 0.00 0.00 0.00 0.00 0.00 0.00 0.00 0.00 0.00 0.00 0.00 0.00 0.00 0.00 0.00 0.00 0.00 0.00 0.00
0.00 0.00 0.00 0.00 0.00 0.00 0.00 0.00 0.00 0.00 0.00 0.00 0.00 0.00 0.00 0.00 0.00 0.00 0.00 0.00 0.00 0.00 0.00 0.00 0.00 0.00 0.00 0.00 0.00 0.00 0.00 0.00 0.00 0.00 0.00 0.00 0.00 0.00 0.00 0.00 0.00 0.00 0.00
0.00 0.00 0.00 0.00 0.00 0.00 0.00 0.00 0.00 0.00 0.00 0.00 0.00 0.00 0.00 0.00 0.00 0.00 0.00 0.00 0.00 0.00 0.00 0.00 0.00 0.00 0.00 0.00 0.00 0.00 0.00 0.00 0.00 0.00 0.00 0.00 0.00 0.00 0.00 0.00 0.00 0.00 0.00
0.00 0.00 0.00 0.00 0.00 0.00 0.00 0.00 0.00 0.00 0.00 0.00 0.00 0.00 0.00 0.00 0.00 0.00 0.00 0.00 0.00 0.00 0.00 0.00 0.00 0.00 0.00 0.00 0.00 0.00 0.00 0.00 0.00 0.00 0.00 0.00 0.00 0.00 0.00 0.00 0.00 0.00 0.00
0.00 0.00 0.00 0.00 0.00 0.00 0.00 0.00 0.00 0.00 0.00 0.00 0.00 0.00 0.00 0.00 0.00 0.00 0.00 0.00 0.00 0.00 0.00 0.00 0.00 0.00 0.00 0.00 0.00 0.00 0.00 0.00 0.00 0.00 0.00 0.00 0.00 0.00 0.00 0.00 0.00 0.00 0.00
0.00 0.00 0.00 0.00 0.00 0.00 0.00 0.00 0.00 0.00 0.00 0.00 0.00 0.00 0.00 0.00 0.00 0.00 0.00 0.00 0.00 0.00 0.00 0.00 0.00 0.00 0.00 0.00 0.00 0.00 0.00 0.00 0.00 0.00 0.00 0.00 0.00 0.00 0.00 0.00 0.00 0.00 0.00
0.00 0.00 0.00 0.00 0.00 0.00 0.00 0.00 0.00 0.00 0.00 0.00 0.00 0.00 0.00 0.00 0.00 0.00 0.00 0.00 0.00 0.00 0.00 0.00 0.00 0.00 0.00 0.00 0.00 0.00 0.00 0.00 0.00 0.00 0.00 0.00 0.00 0.00 0.00 0.00 0.00 0.00 0.00
0.00 0.00 0.00 0.00 0.00 0.00 0.00 0.00 0.00 0.00 0.00 0.00 0.00 0.00 0.00 0.00 0.00 0.00 0.00 0.00 0.00 0.00 0.00 0.00 0.00 0.00 0.00 0.00 0.00 0.00 0.00 0.00 0.00 0.00 0.00 0.00 0.00 0.00 0.00 0.00 0.00 0.00 0.00
0.00 0.00 0.00 0.00 0.00 0.00 0.00 0.00 0.00 0.00 0.00 0.00 0.00 0.00 0.00 0.00 0.00 0.00 0.00 0.00 0.00 0.00 0.00 0.00 0.00 0.00 0.00 0.00 0.00 0.00 0.00 0.00 0.00 0.00 0.00 0.00 0.00 0.00 0.00 0.00 0.00 0.00 0.00
0.00 0.00 0.00 0.00 0.00 0.00 0.00 0.00 0.00 0.00 0.00 0.00 0.00 0.00 0.00 0.00 0.00 0.00 0.00 0.00 0.00 0.00 0.00 0.00 0.00 0.00 0.00 0.00 0.00 0.00 0.00 0.00 0.00 0.00 0.00 0.00 0.00 0.00 0.00 0.00 0.00 0.00 0.00
0.00 0.00 0.00 0.00 0.00 0.00 0.00 0.00 0.00 0.00 0.00 0.00 0.00 0.00 0.00 0.00 0.00 0.00 0.00 0.00 0.00 0.00 0.00 0.00 0.00 0.00 0.00 0.00 0.00 0.00 0.00 0.00 0.00 0.00 0.00 0.00 0.00 0.00 0.00 0.00 0.00 0.00 0.00
MSLP
1010.91 1011.16 1011.60 1013.57 1015.49 1015.99 1016.05 1016.21 1016.39 1016.47 1016.67 1016.51 1016.28 1015.94 1015.74 1015.76 1015.53 1015.40 1015.22 1014.80 1014.60 1014.33 1014.07 1013.75 1013.35 1013.00 1012.64 1012.26 1011.92 1011.58 1011.25 1010.89 1010.89 1010.62 1010.17 1009.94 1009.77 1009.58 1009.28 1009.02 1008.64 1008.62 1008.87
1011.69 1011.53 1012.32 1013.76 1015.09 1015.58 1015.83 1016.10 1016.25 1016.47 1016.62 1016.71 1016.63 1016.46 1016.17 1015.85 1015.70 1015.42 1015.09 1015.00 1014.83 1014.66 1014.36 1013.86 1013.47 1013.12 1012.68 1012.31 1011.97 1011.65 1011.28 1010.92 1010.67 1010.34 1010.08 1009.50 1009.15 1008.78 1008.44 1008.34 1008.14 1007.97 1007.76
1012.31 1012.03 1012.96 1014.13 1014.75 1015.28 1015.57 1015.81 1016.15 1016.39 1016.53 1016.62 1016.65 1016.34 1015.97 1015.61 1015.29 1015.12 1015.11 1014.97 1014.85 1014.64 1014.39 1014.04 1013.72 1013.30 1013.12 1012.60 1012.05 1011.57 1011.30 1010.97 1010.67 1010.38 1010.11 1009.54 1008.68 1008.35 1007.70 1007.21 1007.04 1007.06 1007.07
1013.08 1012.98 1013.52 1013.78 1014.38 1014.87 1015.22 1015.88 1016.08 1016.20 1016.29 1016.40 1016.41 1016.23 1015.94 1015.62 1015.39 1015.25 1015.02 1014.73 1014.47 1014.47 1014.44 1014.31 1014.18 1013.69 1013.13 1012.92 1012.19 1011.58 1011.14 1010.95 1010.61 1010.41 1010.03 1009.68 1009.56 1009.24 1008.34 1008.04 1007.29 1006.84 1006.48
1013.84 1013.98 1014.18 1014.00 1014.16 1014.94 1015.18 1015.45 1015.69 1015.83 1015.99 1016.20 1016.29 1016.18 1015.90 1015.75 1015.39 1015.14 1014.82 1014.59 1014.40 1014.37 1014.52 1014.49 1014.36 1013.88 1013.34 1012.94 1012.26 1011.64 1011.30 1010.94 1010.58 1010.25 1009.99 1009.75 1009.46 1009.32 1008.91 1008.11 1007.77 1007.27 1006.79
1013.93 1014.10 1014.31 1014.37 1013.95 1014.33 1014.88 1015.10 1015.28 1015.39 1015.60 1015.86 1015.97 1015.92 1015.77 1015.61 1015.32 1014.93 1014.70 1014.47 1014.41 1014.50 1014.38 1014.09 1013.81 1013.63 1013.20 1012.88 1012.37 1011.65 1011.32 1011.04 1010.68 1010.37 1010.07 1009.78 1009.55 1009.17 1008.84 1008.42 1008.09 1007.55 1007.04
1013.66 1013.81 1013.89 1014.00 1014.01 1014.19 1014.48 1014.72 1014.87 1014.95 1015.13 1015.53 1015.70 1015.75 1015.68 1015.49 1015.17 1014.79 1014.50 1014.46 1014.22 1014.26 1014.03 1013.74 1013.54 1013.31 1013.05 1012.69 1012.24 1011.60 1011.16 1010.96 1010.71 1010.42 1010.05 1009.67 1009.37 1009.20 1009.02 1008.78 1008.28 1007.75 1007.23
1013.68 1013.73 1013.76 1013.85 1013.89 1013.98 1014.15 1014.26 1014.40 1014.47 1014.67 1015.01 1015.32 1015.49 1015.34 1015.19 1014.95 1014.58 1014.53 1014.42 1014.07 1013.97 1013.84 1013.59 1013.43 1013.03 1012.59 1012.19 1011.76 1011.27 1010.83 1010.49 1010.29 1010.07 1009.84 1009.57 1009.33 1009.20 1008.98 1008.70 1008.41 1007.66 1007.13
1013.89 1013.72 1013.64 1013.62 1013.56 1013.62 1013.58 1013.59 1013.62 1013.77 1014.17 1014.64 1014.90 1014.92 1014.87 1014.79 1014.62 1014.37 1014.28 1014.28 1014.01 1013.73 1013.46 1013.29 1013.21 1012.85 1012.48 1012.05 1011.50 1010.86 1010.43 1010.10 1009.89 1009.67 1009.42 1009.16 1008.87 1008.73 1008.50 1008.38 1008.30 1008.02 1007.13
1013.70 1013.46 1013.23 1013.05 1012.97 1012.98 1013.03 1013.19 1013.37 1013.58 1013.81 1014.24 1014.50 1014.45 1014.49 1014.56 1014.46 1014.20 1013.92 1013.91 1013.77 1013.55 1013.23 1013.04 1012.79 1012.45 1012.13 1011.83 1011.43 1010.90 1010.23 1009.70 1009.32 1009.24 1009.03 1008.82 1008.61 1008.35 1008.11 1008.05 1008.00 1007.77 1007.26
1013.88 1013.50 1013.19 1012.84 1012.60 1012.48 1012.50 1012.72 1013.09 1013.29 1013.43 1013.71 1014.01 1014.08 1014.07 1014.12 1014.10 1013.95 1013.71 1013.53 1013.47 1013.38 1013.12 1012.82 1012.58 1012.24 1011.90 1011.52 1011.24 1010.89 1010.40 1009.91 1009.33 1008.87 1008.59 1008.38 1008.19 1007.97 1007.67 1007.55 1007.48 1007.29 1007.02
1013.87 1013.51 1013.17 1012.84 1012.66 1012.47 1012.33 1012.26 1012.35 1012.65 1012.92 1013.24 1013.61 1013.76 1013.82 1013.85 1013.80 1013.65 1013.49 1013.36 1013.22 1013.06 1012.83 1012.55 1012.29 1011.99 1011.67 1011.31 1011.00 1010.67 1010.42 1010.06 1009.65 1009.28 1008.91 1008.35 1007.91 1007.60 1007.30 1007.21 1007.03 1006.83 1006.41
1013.69 1013.31 1012.91 1012.69 1012.52 1012.31 1012.15 1012.02 1012.06 1012.30 1012.61 1012.99 1013.28 1013.39 1013.44 1013.50 1013.47 1013.34 1013.28 1013.19 1012.98 1012.68 1012.33 1012.05 1011.85 1011.61 1011.42 1011.23 1010.95 1010.62 1010.37 1010.01 1009.61 1009.17 1008.82 1008.54 1008.25 1007.79 1007.57 1007.36 1006.93 1006.65 1006.07
1013.60 1013.15 1012.74 1012.43 1012.19 1011.97 1011.88 1011.85 1011.91 1012.11 1012.43 1012.82 1012.99 1013.00 1013.08 1013.15 1013.15 1013.04 1012.94 1012.77 1012.58 1012.38 1012.09 1011.91 1011.71 1011.43 1011.11 1010.87 1010.62 1010.66 1010.48 1010.02 1009.48 1009.00 1008.56 1008.15 1007.93 1007.43 1007.10 1006.84 1006.39 1006.05 1005.49
1013.41 1013.07 1012.61 1012.20 1011.97 1011.69 1011.53 1011.49 1011.59 1011.87 1012.22 1012.50 1012.63 1012.71 1012.71 1012.78 1012.85 1012.81 1012.69 1012.62 1012.43 1012.14 1011.94 1011.82 1011.57 1011.24 1010.96 1010.61 1010.76 1010.69 1010.43 1010.03 1009.41 1008.83 1008.23 1007.61 1007.21 1007.06 1006.87 1006.50 1005.92 1005.38 1004.95
1013.14 1012.85 1012.44 1012.01 1011.67 1011.43 1011.27 1011.22 1011.24 1011.56 1011.89 1012.13 1012.27 1012.26 1012.31 1012.44 1012.42 1012.34 1012.32 1012.40 1012.30 1012.12 1011.84 1011.57 1011.32 1011.17 1010.98 1010.74 1010.81 1010.55 1009.95 1009.41 1008.95 1008.37 1007.81 1007.27 1006.90 1006.38 1006.04 1005.77 1005.33 1005.04 1004.58
1012.94 1012.52 1012.03 1011.66 1011.29 1011.09 1010.95 1010.89 1010.82 1010.94 1011.26 1011.53 1011.69 1011.81 1011.95 1011.97 1011.87 1011.84 1011.83 1011.76 1011.64 1011.56 1011.47 1011.35 1011.18 1010.98 1010.85 1010.69 1010.73 1010.37 1009.72 1008.90 1008.44 1008.05 1007.52 1007.03 1006.53 1006.21 1005.84 1005.50 1005.01 1004.40 1003.94
1012.83 1012.35 1011.82 1011.38 1011.06 1010.74 1010.44 1010.31 1010.42 1010.50 1010.74 1010.95 1011.15 1011.26 1011.34 1011.41 1011.54 1011.63 1011.57 1011.49 1011.50 1011.49 1011.28 1010.96 1010.79 1010.72 1010.52 1010.44 1010.49 1010.22 1009.56 1008.75 1008.46 1007.92 1007.63 1007.34 1006.72 1006.20 1005.99 1005.48 1004.64 1004.04 1003.92
1012.85 1012.32 1011.89 1011.43 1011.00 1010.69 1010.29 1010.09 1010.00 1010.13 1010.15 1010.14 1010.41 1010.61 1010.76 1010.90 1010.98 1010.99 1011.11 1011.19 1011.29 1011.20 1010.99 1010.93 1010.81 1010.50 1010.07 1010.14 1010.15 1009.75 1009.25 1008.76 1008.37 1008.17 1007.79 1007.49 1007.12 1006.70 1006.09 1005.26 1004.41 1003.91 1003.86
1013.06 1012.33 1011.80 1011.46 1011.02 1010.58 1010.27 1009.93 1009.70 1009.75 1009.49 1009.47 1009.66 1009.82 1009.93 1010.24 1010.32 1010.37 1010.46 1010.57 1010.70 1010.67 1010.66 1010.51 1010.52 1010.41 1010.25 1009.76 1009.63 1009.52 1009.11 1008.56 1008.36 1008.04 1007.79 1007.55 1007.24 1006.91 1006.36 1005.77 1004.97 1004.36 1003.87
1012.83 1012.40 1011.93 1011.45 1011.03 1010.73 1010.48 1010.02 1009.69 1009.45 1009.22 1009.09 1009.02 1009.09 1009.18 1009.52 1009.66 1009.71 1009.82 1010.09 1010.27 1010.25 1010.21 1010.16 1009.83 1009.91 1009.84 1009.58 1009.21 1009.44 1008.86 1008.52 1008.19 1008.01 1007.88 1007.61 1007.34 1006.98 1006.54 1005.98 1005.70 1005.02 1004.69
1012.47 1012.20 1011.77 1011.32 1010.96 1010.70 1010.46 1010.14 1009.77 1009.33 1009.24 1009.09 1009.00 1009.10 1009.06 1009.08 1009.22 1009.23 1009.19 1009.34 1009.52 1009.42 1009.30 1009.29 1009.14 1008.93 1009.14 1009.31 1009.02 1008.81 1009.09 1008.77 1008.16 1007.85 1007.79 1007.71 1007.40 1007.12 1006.81 1006.45 1005.93 1005.69 1005.20
1012.52 1012.07 1011.65 1011.08 1010.63 1010.33 1010.12 1009.81 1009.21 1009.03 1008.85 1008.74 1008.57 1008.50 1008.60 1008.78 1008.86 1009.01 1009.14 1009.21 1009.23 1009.21 1008.98 1008.80 1008.65 1008.49 1008.53 1008.72 1008.62 1008.59 1008.53 1008.64 1008.31 1007.61 1007.70 1007.59 1007.44 1006.92 1006.54 1006.46 1006.09 1005.73 1005.65
1012.47 1012.09 1011.65 1011.12 1010.52 1010.06 1009.73 1009.35 1008.74 1008.58 1008.44 1008.23 1008.10 1008.00 1007.87 1007.64 1007.90 1008.04 1007.99 1008.02 1008.11 1008.19 1008.25 1008.08 1007.92 1007.83 1007.85 1007.85 1007.90 1008.02 1008.06 1007.94 1007.83 1007.52 1007.44 1007.06 1007.29 1006.99 1006.56 1006.33 1006.08 1005.91 1005.92
1012.39 1012.09 1011.71 1011.16 1010.49 1009.93 1009.42 1008.97 1008.39 1007.98 1007.79 1007.52 1007.37 1007.32 1007.26 1007.19 1007.09 1006.98 1006.97 1006.96 1006.93 1007.14 1007.16 1007.24 1007.44 1007.67 1007.72 1007.64 1007.79 1007.91 1007.75 1007.64 1007.54 1007.49 1007.22 1006.88 1006.76 1006.61 1006.68 1006.36 1006.41 1006.16 1005.97
1012.25 1011.68 1011.34 1011.05 1010.45 1009.89 1009.32 1008.78 1008.28 1007.74 1007.20 1006.89 1006.69 1006.34 1006.13 1006.02 1006.07 1006.14 1005.98 1006.05 1006.16 1006.27 1006.49 1006.60 1006.70 1006.85 1007.09 1007.41 1007.70 1007.74 1007.76 1007.58 1007.47 1007.29 1006.98 1006.83 1006.74 1006.69 1006.65 1006.55 1006.56 1006.49 1006.39
Thickness
5653 5650 5646 5637 5619 5618 5620 5623 5625 5627 5626 5628 5630 5632 5633 5632 5633 5632 5631 5633 5632 5632 5631 5631 5632 5631 5632 5634 5635 5635 5636 5638 5637 5637 5643 5647 5651 5653 5657 5661 5665 5666 5665
5619 5618 5615 5609 5601 5603 5606 5609 5612 5614 5616 5616 5618 5619 5621 5622 5622 5621 5620 5618 5618 5616 5616 5617 5616 5616 5616 5617 5617 5618 5619 5621 5622 5622 5624 5629 5638 5641 5647 5648 5651 5654 5657
5585 5586 5582 5578 5583 5588 5594 5600 5602 5605 5607 5608 5608 5611 5614 5614 5615 5613 5610 5608 5607 5605 5604 5603 5603 5603 5601 5603 5605 5606 5605 5605 5607 5609 5609 5611 5621 5625 5636 5640 5642 5643 5643
5560 5561 5560 5566 5573 5582 5587 5589 5594 5598 5601 5601 5602 5602 5604 5604 5604 5603 5602 5603 5602 5598 5594 5591 5589 5590 5591 5589 5592 5594 5595 5594 5595 5598 5601 5605 5605 5604 5613 5617 5624 5628 5632
5548 5544 5546 5559 5571 5575 5583 5587 5591 5594 5595 5594 5593 5593 5594 5593 5596 5597 5598 5597 5595 5592 5587 5583 5581 5581 5582 5582 5583 5584 5584 5585 5587 5589 5590 5593 5595 5595 5595 5600 5605 5611 5615
5556 5550 5552 5557 5571 5577 5579 5585 5588 5589 5590 5588 5587 5587 5587 5588 5589 5592 5593 5593 5590 5586 5583 5583 5581 5577 5577 5576 5577 5579 5579 5578 5579 5580 5582 5583 5583 5584 5586 5587 5589 5593 5601
5568 5563 5562 5564 5570 5575 5578 5581 5585 5587 5587 5584 5583 5583 5582 5583 5585 5589 5590 5587 5587 5584 5582 5581 5578 5575 5574 5572 5571 5574 5575 5573 5573 5572 5573 5575 5576 5576 5574 5573 5576 5579 5584
5577 5573 5572 5571 5573 5576 5579 5582 5584 5586 5586 5585 5581 5580 5580 5581 5582 5585 5584 5582 5583 5581 5580 5578 5575 5574 5574 5573 5572 5571 5571 5571 5570 5569 5568 5568 5568 5565 5564 5563 5564 5568 5571
5579 5577 5578 5578 5580 5580 5583 5585 5587 5589 5587 5583 5580 5580 5579 5579 5579 5580 5579 5577 5577 5577 5576 5574 5572 5572 5571 5570 5570 5571 5571 5570 5568 5566 5565 5564 5563 5560 5558 5556 5554 5552 5556
5585 5584 5584 5586 5587 5587 5589 5589 5588 5587 5586 5581 5578 5577 5576 5574 5573 5574 5576 5574 5574 5573 5571 5570 5570 5569 5568 5566 5566 5568 5569 5570 5569 5564 5562 5559 5556 5555 5553 5549 5546 5542 5541
5585 5586 5587 5590 5592 5593 5593 5591 5588 5585 5583 5579 5575 5573 5572 5569 5568 5568 5570 5571 5570 5568 5567 5568 5567 5566 5565 5565 5564 5562 5563 5562 5562 5562 5560 5557 5554 5550 5548 5543 5538 5533 5528
5586 5587 5588 5590 5589 5590 5591 5591 5591 5587 5583 5579 5574 5571 5568 5565 5563 5562 5564 5565 5565 5565 5564 5564 5563 5563 5562 5561 5560 5559 5556 5554 5553 5551 5549 5549 5549 5546 5542 5537 5531 5524 5518
5586 5586 5588 5588 5588 5589 5589 5590 5588 5585 5580 5575 5570 5568 5565 5562 5560 5558 5558 5558 5560 5561 5562 5562 5561 5559 5557 5555 5553 5552 5549 5547 5545 5545 5543 5539 5537 5535 5532 5526 5522 5513 5508
5586 5587 5588 5587 5588 5589 5588 5588 5586 5582 5577 5570 5566 5564 5562 5559 5556 5554 5553 5553 5554 5555 5556 5555 5554 5553 5552 5551 5549 5544 5540 5538 5537 5538 5538 5537 5533 5531 5528 5523 5517 5510 5504
5584 5585 5587 5588 5587 5588 5588 5586 5584 5580 5574 5569 5566 5563 5560 5556 5553 5550 5548 5546 5546 5547 5546 5545 5545 5545 5544 5544 5538 5534 5532 5530 5530 5531 5533 5534 5532 5527 5522 5519 5514 5509 5503
5582 5582 5584 5586 5586 5586 5585 5583 5581 5576 5571 5565 5562 5560 5557 5553 5550 5547 5545 5542 5539 5538 5538 5537 5537 5535 5533 5532 5527 5526 5528 5528 5527 5527 5527 5528 5527 5526 5522 5518 5514 5507 5502
5577 5578 5580 5581 5582 5580 5581 5580 5578 5575 5569 5563 5560 5556 5552 5549 5547 5544 5540 5538 5536 5534 5532 5530 5528 5526 5523 5521 5518 5517 5521 5525 5525 5523 5523 5522 5522 5519 5516 5513 5510 5509 5504
5570 5572 5574 5575 5576 5576 5578 5577 5574 5570 5565 5559 5556 5552 5547 5544 5540 5537 5534 5532 5528 5525 5523 5522 5520 5518 5516 5514 5510 5509 5513 5517 5517 5517 5515 5513 5513 5513 5509 5506 5507 5508 5501
5560 5562 5565 5566 5567 5566 5568 5567 5565 5561 5558 5557 5551 5546 5541 5537 5534 5531 5527 5523 5519 5516 5515 5512 5509 5508 5509 5505 5501 5502 5504 5506 5506 5505 5504 5503 5502 5501 5501 5503 5505 5504 5497
5548 5553 5554 5553 5554 5556 5557 5557 5556 5552 5553 5550 5545 5541 5536 5529 5525 5521 5517 5513 5509 5506 5503 5500 5498 5496 5495 5496 5495 5492 5493 5496 5495 5494 5493 5492 5491 5490 5491 5491 5494 5494 5493
5542 5543 5543 5543 5544 5544 5543 5543 5544 5543 5542 5540 5537 5533 5528 5520 5516 5512 5507 5500 5495 5492 5489 5487 5487 5485 5482 5481 5483 5478 5481 5482 5482 5481 5480 5479 5479 5479 5479 5481 5479 5481 5480
5535 5534 5535 5534 5533 5532 5531 5528 5528 5530 5528 5526 5523 5518 5515 5510 5505 5501 5497 5492 5487 5484 5481 5477 5476 5473 5468 5464 5463 5465 5462 5463 5466 5467 5465 5463 5463 5464 5465 5466 5468 5467 5467
5526 5525 5524 5524 5523 5522 5520 5518 5520 5519 5516 5512 5510 5507 5502 5497 5492 5486 5481 5476 5472 5469 5467 5466 5463 5460 5455 5449 5449 5446 5444 5442 5444 5450 5448 5447 5447 5450 5452 5452 5453 5455 5454
5513 5512 5511 5510 5511 5511 5509 5509 5510 5506 5502 5499 5496 5494 5491 5489 5483 5476 5472 5468 5463 5460 5455 5453 5450 5449 5445 5441 5437 5432 5428 5428 5427 5430 5429 5432 5430 5433 5435 5437 5439 5439 5438
5498 5496 5495 5495 5496 5496 5495 5495 5496 5495 5490 5488 5484 5481 5477 5474 5470 5467 5463 5459 5455 5448 5445 5441 5437 5431 5426 5424 5420 5417 5416 5413 5412 5411 5412 5414 5414 5415 5416 5419 5420 5422 5423
5482 5484 5482 5480 5479 5479 5478 5478 5478 5479 5479 5476 5472 5471 5469 5466 5460 5456 5455 5449 5442 5438 5432 5427 5422 5418 5413 5408 5403 5401 5398 5397 5396 5396 5398 5398 5397 5396 5396 5397 5398 5401 5404